Location: Banff
(51.1667°N, 115.5667°W)
Time: 07:54:07
(UTC+00:00)

N. Korean satellite - Pass Details

Date: 02 December 2022
Orbit: 407 x 442 km, 97.3° (Epoch: 04 February)

Event Time Altitude Azimuth Distance (km) Brightness Sun altitude
Rises 14:07:01 0° 2° (N) 2,529 10.0 -11.7°
Reaches altitude 10° 14:09:23 10° 348° (NNW) 1,644 8.9 -11.3°
Maximum altitude 14:12:11 23° 295° (WNW) 1,060 7.6 -10.9°
Drops below altitude 10° 14:14:57 10° 242° (WSW) 1,620 8.8 -10.5°
Sets 14:17:15 0° 227° (SW) 2,482 9.9 -10.2°
